Showing default

ICEYE-X50, 63255

Orbit data source: Space-Track

ICEYE-X50, 63255 is a payload satellite owned by ICEYE (FI) in SSO that was launched on Sat, 15 Mar 2025 UTC via an FALCON 9 launch vehicle from the Air Force Western Test Range (AFWTR). Payload-class satellites include a variety of spacecraft equipped with specific instruments for various scientific and technological missions. These include communications satellites like Starlink; space stations such as the ISS; scientific satellites like the Hubble; Earth observation satellites from companies like Planet Labs, Umbra, and HawkEye 360; GPS; miniature CubeSats for education and research; and military/defense satellites.

Loading next visibility...
Identifier
63255, 2025-052AX
Orbit
SSO
Country
Flag of FIFI / FIN
Related business
Manufacturer
ICEYE
Mission
Operational Commercial Radar Imaging
Bus & Motor
ICEYE, Unknown motor
Mass
80 kg wet, 80 kg dry
Launch date (UTC)
2025-03-15 (1 year ago)
Launch vehicle
FALCON 9
Launch site
Air Force Western Test Range (AFWTR)
Object type
Payload
Rocket body
Debris
Shape & HBR
Box + 1 Pan, 2.4 m
Radar Cross Section
0.776 m², Medium (>0.1 m² and < 1m²)

Expand to show TLE details & history
Last TLE update: 7 hours ago

TLE from 7 hours ago
0 ICEYE-X50
1 63255U 25052AX  26129.81170727  .00000850  00000-0  82588-4 0  9996
2 63255  97.6933  22.4405 0002108  25.1322 335.0000 14.95153891 62918
Epoch: 2026-05-09T19:28Z
TLE epoch observation values (Epoch: 2026-05-09T19:28:51.508Z)
Latitude
-0.00011°
Longitude
-137.39788°
Altitude
583.613 km
Speed
7.569 km/s
True Right ascension
01h 29m 45s
True Declination
0° 00' 00"
Sunlit
Object was in daylight at epoch
Visualization orbit readout
Latitude
Unknown
Longitude
Unknown
Altitude
Unknown
Speed
Unknown
Apparent Right ascension
Unknown
Apparent Declination
Unknown
Sunlit
N/A
Visualization observer readout
Local Sidereal Time
10:32:32
Azimuth
Unknown
Elevation
Unknown
Doppler factor
Unknown
Orbital elements
Apogee altitude
580.373 km
Perigee altitude
577.44 km
Semi-major axis
6,957.044 km
Eccentricity
0.00021
Inclination
97.6933°
RAAN
22.4405°
Arg. of periapsis
25.1322°
True anomaly
334.98979°
Mean anomaly
335°
Eccentric anomaly
334.99489°
Mean motion
3.7403 °/min
Orbital period
96.25 mins
BSTAR
0.000082588
Loading maneuver chart data...
Computing Atmospheric mass density...
Loading historical data...
Loading historical data...
Loading historical data...
Loading historical data...
Loading historical data...
Loading historical data...
Loading historical data...

Documentation

Showing up to 5 results
|